Regional Weather Roundup
Issued by NWS

Home | Current Version | Previous Version | Graphics & Text | Print | Product List | Glossary On
Versions: 1 2 3 4 5 6 7 8 9 10 11 12 13 14 15 16 17 18 19 20 21 22 23 24 25 26 27 28 29 30 31 32 33 34 35 36 37 38 39 40 41 42 43 44 45 46 47 48 49 50
000
ASUS43 KDTX 081401
RWRMI
MICHIGAN HOURLY REGIONAL WEATHER ROUNDUP
NATIONAL WEATHER SERVICE DETROIT/PONTIAC MI
900 AM EST THU DEC 08 2016

NOTE: "FAIR" INDICATES FEW OR NO CLOUDS BELOW 12,000 FEET WITH NO
SIGNIFICANT WEATHER AND/OR OBSTRUCTION TO VISIBILITY.

MIZ047>049-052>055-059>063-066>070-074>076-081>083-081500-
SOUTHEAST LOWER MICHIGAN

CITY           SKY/WX    TMP DP  RH WIND       PRES   REMARKS
ADRIAN         CLOUDY    25  18  74 W16G23    30.09R WCI  12
ANN ARBOR      CLOUDY    27  18  69 W16G25    30.04R WCI  15
DETROIT CITY   CLOUDY    29  19  66 W12G22    30.04R WCI  19
DETROIT        CLOUDY    29  19  66 W14G23    30.06R WCI  18
FLINT          FLURRIES  27  17  66 W22G29    30.01R WCI  13
GROSSE ILE     FLURRIES  28  20  74 W12G22    30.05R WCI  18

CITY           SKY/WX    TMP DP  RH WIND       PRES   REMARKS
LANSING        FLURRIES  26  17  68 W20G29    30.04R WCI  12
LAPEER         NOT AVBL
MASON          CLOUDY    26  19  73 W13G23    30.03S WCI  15
MT. CLEMENS    FLURRIES  29  18  65 W13       30.00R WCI  18
PONTIAC        FLURRIES  26  18  71 W15       30.00R WCI  14
PORT HOPE        N/A     28  13  53 W12G26    29.92S WCI  18
TRI CITIES     CLOUDY    26  18  71 W15G23    30.00R HAZE    WCI  14
MIDLAND        FLURRIES  27  17  66 W8        29.98R WCI  18
$$
MIZ043>046-050>051-056>058-064>065-071>073-077>080-081500-
SOUTHWEST LOWER MICHIGAN

CITY           SKY/WX    TMP DP  RH WIND       PRES   REMARKS
BATTLE CREEK   FLURRIES  26  21  81 W12       30.06R WCI  16
BENTON HARBOR  LGT SNOW  26  18  71 W29G36    30.14R WCI  10
HOLLAND        FLURRIES  27  19  72 W16G30    30.08R WCI  15
GRAND RAPIDS   LGT SNOW  26  19  74 W16G24    30.05R WCI  14
KALAMAZOO      LGT SNOW  25  20  81 W12       30.08R VSB 1   WCI  14
MARSHALL       FLURRIES  26  20  78 W13       30.05R WCI  15
MUSKEGON       LGT SNOW  26  17  68 W22G28    30.07R WCI  12
$$
MIZ016>042-081500-
NORTHERN LOWER MICHIGAN

CITY           SKY/WX    TMP DP  RH WIND       PRES   REMARKS
ALPENA         FLURRIES  27  17  66 W16       29.86S WCI  15
GAYLORD        LGT SNOW  24  18  77 W15G24    29.85S WCI  11
HOUGHTON LAKE  CLOUDY    23  16  74 W20G26    29.92R WCI   8
OSCODA         CLOUDY    27  18  71 MISG      29.92R
PELLSTON       LGT SNOW  27  23  85 W12       29.86R FOG     WCI  17
TRAVERSE CITY  LGT SNOW  26  21  81 W7        29.94R WCI  18
$$
MIZ007>008-015-081500-
EASTERN UPPER MICHIGAN

CITY           SKY/WX    TMP DP  RH WIND       PRES   REMARKS
S. S. MARIE    SNOW      25  22  88 SW7       29.77R VSB 1/2 WCI  17
$$
MIZ004>006-011>014-085-081500-
CENTRAL UPPER MICHIGAN

CITY           SKY/WX    TMP DP  RH WIND       PRES   REMARKS
SAWYER-GWINN   LGT SNOW  19  18  93 W9        29.89R WCI   9
$$
MIZ001>003-009>011-084-081500-
WESTERN UPPER MICHIGAN

CITY           SKY/WX    TMP DP  RH WIND       PRES   REMARKS
IRON MOUNTAIN  CLOUDY    20  13  74 W8        29.94R WCI  10
HOUGHTON       LGT SNOW  26  20  77 N14G24    29.95R WCI  14
$$

ABBREVIATIONS USED IN REMARKS
   TC - TEMPERATURE IN CELSIUS
  WCI - WIND CHILL INDEX
   HX - HEAT INDEX
  VSB - VISIBILITY




USA.gov is the U.S. government's official web portal to all federal, state and local government web resources and services.